Time,TemperatureF,DewpointF,PressureIn,WindDirection,WindDirectionDegrees,WindSpeedMPH,WindSpeedGustMPH,Humidity,HourlyPrecipIn,Conditions,Clouds,dailyrainin,SoftwareType,DateUTC
2013-03-18 18:05:00,28.1,15.2,29.86,NW,306,5.0,5.0,58,0.00,,,0.18,Wunderground v.1.15,2013-03-18 23:05:00,
2013-03-18 18:20:00,27.9,14.2,29.86,NNW,331,6.0,8.0,56,0.00,,,0.18,Wunderground v.1.15,2013-03-18 23:20:00,
2013-03-18 18:30:00,27.9,14.2,29.86,North,360,6.0,6.0,56,0.00,,,0.18,Wunderground v.1.15,2013-03-18 23:30:00,
2013-03-18 18:40:00,27.8,14.5,29.86,WNW,297,5.0,5.0,57,0.00,,,0.18,Wunderground v.1.15,2013-03-18 23:40:00,
2013-03-18 18:50:00,27.6,13.9,29.87,WNW,296,6.0,6.0,56,0.00,,,0.18,Wunderground v.1.15,2013-03-18 23:50:00,
2013-03-18 19:00:00,27.3,13.7,29.88,NW,307,5.0,6.0,56,0.00,,,0.18,Wunderground v.1.15,2013-03-19 00:00:00,
2013-03-18 19:10:00,27.0,13.8,29.88,WNW,295,5.0,5.0,57,0.00,,,0.18,Wunderground v.1.15,2013-03-19 00:10:00,
2013-03-18 19:20:00,27.0,13.8,29.88,WNW,287,4.0,4.0,57,0.00,,,0.18,Wunderground v.1.15,2013-03-19 00:20:00,
2013-03-18 19:30:00,26.9,13.7,29.89,NW,319,5.0,5.0,57,0.00,,,0.18,Wunderground v.1.15,2013-03-19 00:30:00,
2013-03-18 19:40:00,26.9,13.7,29.89,NNW,327,4.0,19.0,57,0.00,,,0.18,Wunderground v.1.15,2013-03-19 00:40:00,
2013-03-18 19:50:00,26.7,13.9,29.90,NNW,328,4.0,4.0,58,0.00,,,0.18,Wunderground v.1.15,2013-03-19 00:50:00,
2013-03-18 20:00:00,26.6,13.8,29.90,NW,307,3.0,3.0,58,0.00,,,0.18,Wunderground v.1.15,2013-03-19 01:00:00,
2013-03-18 20:10:00,26.6,14.2,29.90,NW,313,4.0,19.0,59,0.00,,,0.18,Wunderground v.1.15,2013-03-19 01:10:00,
2013-03-18 20:20:00,26.4,14.4,29.90,NW,311,3.0,19.0,60,0.00,,,0.18,Wunderground v.1.15,2013-03-19 01:20:00,
2013-03-18 20:30:00,26.3,14.3,29.91,WNW,288,2.0,19.0,60,0.00,,,0.18,Wunderground v.1.15,2013-03-19 01:30:00,
2013-03-18 20:40:00,26.1,14.5,29.91,WNW,284,2.0,2.0,61,0.00,,,0.18,Wunderground v.1.15,2013-03-19 01:40:00,
2013-03-18 20:50:00,26.0,14.8,29.91,NW,313,1.0,19.0,62,0.00,,,0.18,Wunderground v.1.15,2013-03-19 01:50:00,
2013-03-18 21:00:00,25.8,14.6,29.91,WNW,287,2.0,2.0,62,0.00,,,0.18,Wunderground v.1.15,2013-03-19 02:00:00,
2013-03-18 21:10:00,25.8,14.9,29.91,WNW,300,0.0,19.0,63,0.00,,,0.18,Wunderground v.1.15,2013-03-19 02:10:00,
2013-03-18 21:20:00,25.7,15.2,29.92,NW,308,1.0,1.0,64,0.00,,,0.18,Wunderground v.1.15,2013-03-19 02:20:00,
2013-03-18 21:30:00,25.6,15.1,29.93,WNW,297,1.0,19.0,64,0.00,,,0.18,Wunderground v.1.15,2013-03-19 02:30:00,
2013-03-18 21:40:00,25.6,15.1,29.93,NW,305,1.0,1.0,64,0.00,,,0.18,Wunderground v.1.15,2013-03-19 02:40:00,
2013-03-18 21:50:00,25.6,15.1,29.93,NW,315,1.0,19.0,64,0.00,,,0.18,Wunderground v.1.15,2013-03-19 02:50:00,
2013-03-18 22:00:00,25.6,15.5,29.94,NW,309,2.0,19.0,65,0.00,,,0.18,Wunderground v.1.15,2013-03-19 03:00:00,
2013-03-18 22:10:00,25.4,15.3,29.94,WNW,296,2.0,19.0,65,0.00,,,0.18,Wunderground v.1.15,2013-03-19 03:10:00,
2013-03-18 22:20:00,25.4,15.3,29.95,NW,305,3.0,3.0,65,0.00,,,0.18,Wunderground v.1.15,2013-03-19 03:20:00,
2013-03-18 22:30:00,25.4,15.3,29.95,NNW,336,2.0,2.0,65,0.00,,,0.18,Wunderground v.1.15,2013-03-19 03:30:00,
2013-03-18 22:40:00,25.3,15.5,29.95,North,360,1.0,1.0,66,0.00,,,0.18,Wunderground v.1.15,2013-03-19 03:40:00,
2013-03-18 22:50:00,25.1,15.3,29.95,NNW,333,2.0,19.0,66,0.00,,,0.18,Wunderground v.1.15,2013-03-19 03:50:00,
2013-03-18 23:00:00,25.0,15.2,29.95,NW,309,3.0,3.0,66,0.00,,,0.18,Wunderground v.1.15,2013-03-19 04:00:00,
2013-03-18 23:10:00,24.8,14.7,29.95,NNW,330,4.0,19.0,65,0.00,,,0.18,Wunderground v.1.15,2013-03-19 04:10:00,
2013-03-18 23:20:00,24.7,14.2,29.95,NW,305,4.0,4.0,64,0.00,,,0.18,Wunderground v.1.15,2013-03-19 04:20:00,
2013-03-18 23:30:00,24.4,14.0,29.93,NW,307,3.0,3.0,64,0.00,,,0.18,Wunderground v.1.15,2013-03-19 04:30:00,
2013-03-18 23:40:00,24.2,13.4,29.93,NNW,344,3.0,19.0,63,0.00,,,0.18,Wunderground v.1.15,2013-03-19 04:40:00,
2013-03-18 23:50:00,23.9,13.1,29.94,NNW,329,3.0,19.0,63,0.00,,,0.18,Wunderground v.1.15,2013-03-19 04:50:00,